EW9502 Weather Reports


time (UTC)temp
F
wind
direction
speed
knots
gust
knots
rain 1hr
in
rain 24hr
in
rain mn
in
humidity
%
barometer
mb
20260503210042 60 0.0 0.0 0.00 0.00 0.00 64 996.2
20260503204542 59 0.0 0.0 0.00 0.00 0.00 65 996.2
20260503203038 59 0.0 0.0 0.00 0.00 0.00 65 996.4
20260503201539 59 0.0 0.0 0.00 0.00 0.00 66 996.5
20260503200034 59 0.0 0.0 0.00 0.00 0.00 66 996.4
20260503194533 58 0.0 0.0 0.00 0.00 0.00 65 996.5
20260503193039 58 0.0 0.0 0.00 0.00 0.00 65 996.5
20260503191530 59 0.0 0.0 0.00 0.00 0.00 65 996.5
20260503190027 59 0.0 0.0 0.00 0.00 0.00 65 996.5
20260503184527 58 0.0 0.0 0.00 0.00 0.00 66 996.5
20260503183023 58 0.0 0.0 0.00 0.00 0.00 66 996.6
20260503181520 57 0.0 0.0 0.00 0.00 0.00 69 996.6
20260503180021 56 0.0 0.0 0.00 0.00 0.00 70 996.5
20260503174515 55 0.0 0.0 0.00 0.00 0.00 71 996.5
20260503173022 55 0.0 0.0 0.00 0.00 0.00 72 996.4
20260503171520 55 0.0 0.0 0.00 0.00 0.00 75 996.6
20260503081519 51 0.0 0.0 0.00 0.00 0.00 80 995.5
20260503071514 51 0.0 0.0 0.00 0.00 0.00 81 995.6
20260503054511 51 0.0 0.0 0.00 0.00 0.00 79 995.8
20260503053011 51 0.0 0.0 0.00 0.00 0.00 79 995.8
20260503051512 51 0.0 0.0 0.00 0.00 0.00 79 995.9
20260503050015 51 0.0 0.0 0.00 0.00 0.00 79 995.8
20260503044509 51 0.0 0.0 0.00 0.00 0.00 79 995.8
20260503043009 52 0.0 0.0 0.00 0.00 0.00 79 995.8
20260503041509 52 0.0 0.0 0.00 0.00 0.00 79 995.7
20260503040008 52 0.0 0.0 0.00 0.00 0.00 78 995.5
20260503034508 52 0.0 0.0 0.00 0.00 0.00 78 995.5
20260503033007 52 0.0 0.0 0.00 0.00 0.00 78 995.3
20260503031507 52 0.0 0.0 0.00 0.00 0.00 78 995.2
20260503030006 52 0.0 0.0 0.00 0.00 0.00 77 994.9
20260503024506 52 0.0 0.0 0.00 0.00 0.00 77 994.7
20260503023006 53 0.0 0.0 0.00 0.00 0.00 76 994.5
20260503021505 53 0.0 0.0 0.00 0.00 0.00 74 994.6
20260503020004 54 0.0 0.0 0.00 0.00 0.00 73 994.6
20260503014504 54 0.0 0.0 0.00 0.00 0.00 72 994.8
20260503013003 55 0.0 0.0 0.00 0.00 0.00 72 994.9
20260503011502 55 0.0 0.0 0.00 0.00 0.00 71 994.7
20260503010001 56 0.0 0.0 0.00 0.00 0.00 70 994.8
20260503004501 57 0.0 0.0 0.00 0.00 0.00 70 994.8
20260503003109 57 0.0 0.0 0.00 0.00 0.00 70 994.8
20260503001602 58 0.0 0.0 0.00 0.00 0.00 68 994.8
20260503000106 60 0.0 0.0 0.00 0.00 0.00 66 994.9
20260502234557 61 0.0 0.0 0.00 0.00 0.00 66 995.0
20260502233055 61 0.0 0.0 0.00 0.00 0.00 65 995.1
20260502231556 61 0.0 0.0 0.00 0.00 0.00 65 995.3
20260502230052 61 0.0 0.0 0.00 0.00 0.00 65 995.5
20260502224553 62 0.0 0.0 0.00 0.00 0.00 65 995.7
20260502223051 62 0.0 0.0 0.00 0.00 0.00 65 995.8
20260502221551 62 0.0 0.0 0.00 0.00 0.00 65 996.0
20260502220046 62 0.0 0.0 0.00 0.00 0.00 65 996.2
20260502214554 61 0.0 0.0 0.00 0.00 0.00 66 996.4
20260502213043 61 0.0 0.0 0.00 0.00 0.00 67 996.4
20260502211541 61 0.0 0.0 0.00 0.00 0.00 68 996.6